STARLINK-2039, 47655

Orbit data source: Space-Track

STARLINK-2039, 47655 is a payload satellite owned by SpaceX/Seattle (US) in LEO that was launched on Tue, 16 Feb 2021 UTC via an FALCON 9 launch vehicle from the Air Force Eastern Test Range (AFETR). Payload-class satellites include a variety of spacecraft equipped with specific instruments for various scientific and technological missions. These include communications satellites like Starlink; space stations such as the ISS; scientific satellites like the Hubble; Earth observation satellites from companies like Planet Labs, Umbra, and HawkEye 360; GPS; miniature CubeSats for education and research; and military/defense satellites.

Loading next visibility...
Identifier
47655, 2021-012AM
Orbit
LEO
Country
Flag of USUS
Related business
Manufacturer
SpaceX/Seattle
Mission
Operational Commercial Communications
Bus & Motor
STARLINK, Unknown motor
Mass
260 kg wet, ~248 kg dry
Launch date (UTC)
2021-02-16 (5 years ago)
Launch vehicle
FALCON 9
Launch site
Air Force Eastern Test Range (AFETR)
Object type
Payload
Rocket body
Debris
Shape & HBR
Box + 1 Pan, 10.1 m
Radar Cross Section
13.562 m², Large (>1 m²)

Expand to show TLE details & history
Last TLE update: 2 days ago

TLE from 2 days ago
0 STARLINK-2039
1 47655U 21012AM  26171.41357942 -.00004481  00000-0 -13276-3 0  9996
2 47655  53.1594 307.1557 0000669  25.4091 334.6943 15.31692335295822
Epoch: 2026-06-20T09:55Z
TLE epoch observation values (Epoch: 2026-06-20T09:55:33.261Z)
Latitude
-0.00006°
Longitude
-110.36149°
Altitude
471.249 km
Speed
7.632 km/s
True Right ascension
20h 28m 37s
True Declination
0° 00' 00"
Sunlit
Object was in full shadow at epoch
Visualization orbit readout
Latitude
Unknown
Longitude
Unknown
Altitude
Unknown
Speed
Unknown
Apparent Right ascension
Unknown
Apparent Declination
Unknown
Sunlit
N/A
Visualization observer readout
Local Sidereal Time
21:39:59
Azimuth
Unknown
Elevation
Unknown
Doppler factor
Unknown
Orbital elements
Apogee altitude
471.478 km
Perigee altitude
470.561 km
Semi-major axis
6,849.157 km
Eccentricity
0.00007
Inclination
53.1594°
RAAN
307.1557°
Arg. of periapsis
25.4091°
True anomaly
334.69102°
Mean anomaly
334.6943°
Eccentric anomaly
334.69266°
Mean motion
3.82902 °/min
Orbital period
94.02 mins
BSTAR
-0.00013276
Loading maneuver chart data...
Computing Atmospheric mass density...

Documentation

Showing up to 5 results
|